#timestamp,LO_Frequency,Hit 
1506171615.7,286046998.1,P
1506171635.5,286047000.8,N
1506171655.3,286046998.5,N
1506171675.2,286046998.3,N
1506171695.9,286046999.2,N
1506171715.7,286046998.3,N
1506171735.6,286046998.7,N
1506171755.4,286046999.4,N
1506171775.2,286047001.2,N
1506171795.0,286046998.2,N
1506171796.0,286046998.2,N
1506171815.8,286046998.9,N
1506171835.6,286046998.9,N
1506171855.4,286046998.4,N
1506171875.3,286046996.5,P
1506171895.1,286047000.4,N
1506171915.9,286046998.1,N
1506171935.7,286047000.7,N
1506171955.5,286047000.7,N
1506171975.3,286046998.5,N
1506171995.2,286046996.5,N
1506172015.0,286046999.2,N
1506172015.9,286046999.2,N
1506172035.7,286046996.6,N
1506172055.6,286046997.0,N
1506172075.4,286046996.7,N
1506172095.2,286046996.8,N
1506172115.1,286046996.8,N
1506172116.0,286046996.8,N
1506172135.8,286046997.1,N
1506172155.6,286046997.0,N
1506172175.5,286046996.6,N
1506172195.3,286046996.9,N
1506172215.1,286046996.8,N
1506172235.9,286046996.8,N
1506172255.7,286046996.7,N
1506172275.5,286046996.5,N
1506172295.3,286046997.2,N
1506172315.2,286046997.1,N
1506172335.0,286046996.8,N
1506172335.9,286046996.8,N
1506172355.7,286046997.1,N
1506172375.6,286046995.0,P
1506172395.4,286046998.9,N
1506172415.2,286046999.3,N
1506172435.1,286046999.3,N
1506172436.0,286046999.3,N
1506172455.8,286046997.0,N
1506172475.6,286046999.1,N
1506172495.5,286046996.6,N
1506172515.3,286046999.6,N
1506172535.1,286046996.5,N
1506172555.9,286046999.5,N
1506172575.7,286046997.5,N
1506172595.5,286046997.4,N
1506172615.4,286046998.0,N
1506172635.2,286046996.7,N
1506172655.0,286046994.9,P
1506172655.9,286046994.9,P
1506172675.8,286046998.8,N
1506172695.6,286046999.5,N
1506172715.4,286046997.1,N
1506172735.3,286046997.7,N
1506172755.1,286046997.9,N
1506172756.0,286046997.9,N
1506172775.8,286046997.9,N
1506172795.7,286046997.9,N
1506172815.5,286046997.4,N
1506172835.3,286046998.0,N
1506172855.1,286046997.6,N
1506172875.9,286046997.5,N
1506172895.7,286046997.9,N
1506172915.6,286046995.5,P
1506172935.4,286046998.8,N
1506172955.2,286046999.3,N
1506172975.0,286046999.3,N
1506172975.9,286046999.3,N
1506172995.8,286046996.6,N
1506173015.6,286046994.9,P
1506173035.5,286046999.3,N
1506173055.3,286046999.1,N
1506173075.1,286046996.5,N
1506173095.8,286046996.9,N
1506173115.7,286046997.0,N
1506173135.5,286046997.4,N
1506173155.3,286046997.7,N
1506173175.2,286046997.2,N
1506173195.9,286046997.3,N
1506173215.7,286046997.0,N
1506173235.6,286046996.9,N
1506173255.4,286046996.5,P
1506173275.2,286047000.9,N
1506173295.1,286047000.9,N
1506173296.0,286047000.9,N
1506173315.8,286047000.5,N
1506173335.6,286047001.0,N
1506173355.5,286047000.8,N
1506173375.3,286047000.5,N
1506173395.1,286046998.1,N
1506173415.9,286046998.2,N
1506173435.7,286047000.8,N
1506173455.5,286046998.9,N
1506173475.3,286046999.3,N
1506173495.2,286046999.3,N
1506173515.0,286046996.5,N
1506173515.9,286046996.5,N
1506173535.7,286046996.8,N
1506173555.6,286046999.0,N
1506173575.4,286046997.0,N
1506173595.2,286046999.6,N
1506173615.1,286046996.5,N
1506173616.0,286046996.5,N
1506173635.8,286046996.7,N
1506173655.6,286046997.5,N
1506173675.5,286046997.4,N
1506173695.3,286046997.6,N
1506173715.1,286046997.2,N
1506173735.8,286046995.3,N
1506173755.7,286046996.2,N
1506173775.5,286046993.4,P
1506173795.4,286046995.4,N
1506173815.2,286046994.9,N
1506173835.0,286046995.2,N
1506173835.9,286046995.2,P
1506173855.8,286047000.0,N
1506173875.6,286046999.8,N
1506173895.4,286047000.3,N
1506173915.3,286047001.2,N
1506173935.1,286047000.8,N
1506173936.0,286047000.8,N
1506173955.8,286047000.7,N
1506173975.7,286047001.1,N
1506173995.5,286047000.9,N
1506174015.3,286047001.1,N
1506174035.1,286047000.9,N
1506174055.9,286047000.7,N
1506174075.7,286047000.7,N
1506174095.5,286046998.2,N
1506174115.4,286046999.0,N
1506174135.2,286046998.5,N
1506174155.0,286046998.3,N
1506174155.9,286046998.3,N
1506174175.8,286046998.3,N
1506174195.6,286046998.8,N
1506174215.4,286046998.1,N
1506174235.3,286046996.6,N
1506174255.1,286046999.6,N
1506174256.0,286046999.6,N
1506174275.8,286046999.3,N
1506174295.7,286046996.9,N
1506174315.5,286046999.6,N
1506174335.3,286046997.0,N
1506174355.1,286046999.6,N
1506174375.9,286046999.1,N
1506174395.7,286046999.4,N
1506174415.5,286046999.4,N
1506174435.4,286046996.5,N
1506174455.2,286046999.0,N
1506174475.0,286046998.9,N
1506174475.9,286046998.9,N
1506174495.8,286046999.3,N
1506174515.6,286046999.1,N
1506174535.4,286046998.4,N
1506174555.3,286046998.2,N
1506174575.1,286047000.3,N
1506174576.0,286047000.3,N
1506174595.8,286047000.7,N
1506174615.7,286046998.6,N
1506174635.5,286047001.1,N
1506174655.3,286046998.6,N
1506174675.2,286047001.1,N
1506174695.9,286047001.0,N
1506174715.7,286047001.2,N
1506174735.5,286047000.6,N
1506174755.4,286047000.7,N
1506174775.2,286047000.5,N
1506174795.0,286047001.1,N
1506174795.9,286047001.1,N
1506174815.8,286047000.1,N
1506174835.6,286047002.8,N
1506174855.4,286047000.0,N
1506174875.3,286046999.8,N
1506174895.1,286047000.1,N
1506174896.0,286047000.1,N
1506174915.8,286047000.1,N
1506174935.7,286047002.4,N
1506174955.5,286047002.3,N
1506174975.3,286047000.0,N
1506174995.2,286047000.1,N
1506175015.9,286047002.4,N
1506175035.7,286046999.8,N
1506175055.6,286047002.8,N
1506175075.4,286047000.1,N
1506175095.2,286047000.0,N
1506175115.0,286047002.8,N
1506175116.0,286047002.8,N
1506175135.8,286046999.7,N
1506175155.6,286046999.7,N
1506175175.4,286047000.2,N
1506175195.3,286047000.0,N
